Location: ?????
(33.6267°N, 35.4675°E)
Time: 17:03:49
(UTC+00:00)

Daily predictions for brighter satellites

Satellite Brightness Start Highest point End
(mag) Time Altitude Azimuth Time Altitude Azimuth Time Altitude Azimuth
Cosmos 1743 Rocket 3.8 14:54:23 10° N 14:58:33 45° E 15:02:44 10° SSE
Cosmos 1697 Rocket 4.3 14:55:54 10° SE 14:58:43 14° E 15:01:33 10° ENE
NOSS 3-1 (A) 4.3 14:54:44 10° SSE 14:58:52 23° ESE 15:03:18 10° ENE
Envisat 3.9 14:55:27 10° SE 14:59:39 27° ENE 15:03:51 10° NNE
NOSS 3-1 (C) 3.6 14:55:45 10° S 15:00:44 43° ESE 15:06:13 10° NE
COBE Rocket 4.0 14:56:15 10° NNE 15:00:56 52° E 15:05:29 10° S
Cosmos 1725 Rocket 4.0 14:54:42 10° N 15:01:03 81° E 15:07:21 10° S
Cosmos 2016 Rocket 4.5 15:00:35 10° N 15:06:57 71° W 15:13:14 10° S
ATLAS 5 CENTAUR R/B 3.8 15:10:47 10° N 15:14:41 17° NE 15:18:52 10° E
CZ-3C R/B 3.2 15:13:16 10° SW 15:16:28 15° SSW 15:18:45 10° SSE
CZ-4 R/B 2.6 15:16:32 10° ESE 15:19:48 22° ENE 15:23:03 10° NNE
Cosmos 1500 Rocket 3.5 15:19:57 10° N 15:24:20 85° E 15:28:40 10° S
EO 1 Delta rocket 4.4 15:21:46 10° SSE 15:27:09 75° ENE 15:34:03 10° N
SeaSat 1 2.5 15:22:26 10° SE 15:27:16 59° ENE 15:32:07 10° NNW
Starlink Launch 2 Placeholder 2.9 15:26:16 10° NW 15:28:40 55° SW 15:31:04 10° SSE
Cosmos 1869 3.2 15:27:50 10° S 15:31:47 70° E 15:35:43 10° NNE
CZ-3 Stage 3 2.9 15:24:23 10° W 15:31:50 38° SSW 15:34:27 10° SE
COSMO-SKYMED 1 2.5 15:30:01 10° NNE 15:34:20 66° ESE 15:38:37 10° S
NOAA 12 4.1 15:33:20 10° SSE 15:38:38 86° ENE 15:44:00 10° NNW
NOSS 2-3 (C) 4.5 15:35:35 10° S 15:39:12 28° ESE 15:41:01 21° ENE
Cosmos 1656 3.6 15:36:45 10° S 15:42:18 71° ESE 15:47:49 10° NNE
Cosmos 2219 3.3 15:39:06 10° N 15:44:35 53° ENE 15:50:02 10° SE
Sich 1 3.3 15:44:49 10° N 15:48:58 43° E 15:53:07 10° SSE
FengYun 1-2 T 4.2 15:44:05 10° SSE 15:49:33 64° ENE 15:55:00 10° N
Centaur D-1A AC-31 2.6 15:51:17 10° SSW 15:53:46 21° SSE 15:55:12 17° SE
Cosmos 1151 Rocket 3.8 15:50:27 10° SSE 15:54:12 29° E 15:54:16 29° E
Cosmos 923 Rocket 4.1 15:49:23 10° S 15:54:28 53° ESE 15:58:39 15° NNE
Okean-O 3.4 15:50:59 10° S 15:55:18 54° W 15:59:39 10° NNW
YAOGAN 1 2.7 15:54:03 10° SSE 15:58:12 49° ENE 16:02:23 10° N
CSL-04 Rocket 3.7 15:53:24 10° SSE 15:58:38 52° ENE 16:03:49 10° N
Cosmos 2084 3.9 15:54:44 10° NNW 15:58:42 37° NE 15:59:10 35° ENE
Cosmos 1980 Rocket 3.0 15:56:20 10° SSE 16:01:01 28° ESE 16:01:14 28° E
OE (NEXTSAT) 4.4 16:04:21 10° NW 16:07:45 56° NNE 16:07:45 56° NNE
Cosmos 2227 Rocket 2.3 16:03:08 10° N 16:08:38 50° ENE 16:12:29 19° SE
ERBS 2.5 16:06:00 10° SW 16:09:17 64° NW 16:09:55 50° N
Cosmos 2297 Rocket 2.2 16:03:45 10° NNW 16:09:18 56° ENE 16:14:35 11° SE
Cosmos 2369 3.6 16:08:47 10° SSW 16:14:25 82° ESE 16:18:29 20° NNE
USA 40 PKM 4.4 16:15:40 10° NW 16:19:46 69° SW 16:20:43 43° SSE
Cosmos 1633 4.1 16:16:39 10° N 16:24:15 - S 16:18:18 25° N
Cosmos 2360 4.2 16:18:32 10° S 16:24:03 57° ESE 16:25:08 49° ENE
YAOGAN 6 3.9 16:22:01 10° S 16:25:20 39° W 16:28:39 10° NNW
Lacrosse 4 Rocket 2.0 16:28:53 10° SW 16:32:53 53° WNW 16:33:42 44° NNW
Cosmos 2082 4.1 16:28:38 10° N 16:32:52 43° NNE 16:32:52 43° NNE
USA 215 4.0 16:34:14 32° NNE 16:34:14 32° NNE 16:39:49 10° NNW
Cosmos 2278 3.6 16:29:46 10° SSW 16:35:26 89° ESE 16:37:27 42° NNE
Cosmos 1464 Rocket 4.1 16:29:46 10° N 16:35:54 72° W 16:41:58 10° S
Cosmos 1697 Rocket 3.1 16:36:28 10° SSW 16:42:02 62° WNW 16:45:07 27° N
NOSS 2-3 (E) 4.0 16:37:57 10° SW 16:42:07 58° WNW 16:42:28 56° NW
NOSS 3-1 (A) 4.3 16:44:12 10° WSW 16:49:15 40° NW 16:52:23 23° N
NOSS 2-3 (D) 4.3 16:47:19 10° SW 16:51:17 50° WNW 16:51:17 50° WNW
CZ-4 R/B 3.8 16:51:17 10° SSW 16:54:40 23° W 16:58:02 10° NW
ATLAS 5 CENTAUR R/B 2.4 16:53:46 10° NNW 16:59:57 86° WSW 17:00:31 76° SSE
H-II Stage 2 4.0 16:34:47 10° WSW 17:10:34 58° S 17:11:37 55° SSE
ATLAS 5 CENTAUR R/B 4.1 17:29:04 10° SW 17:35:55 42° SSE 17:36:42 42° SSE
Cosmos 1980 Rocket 4.0 17:39:46 10° SW 17:43:05 27° W 17:43:05 27° W
